Year,Month,Day,Hour,Minute,Value (Times are PST for windgust in km/hr)
2010,08,23,00,00,6.40
2010,08,23,00,01,6.40
2010,08,23,00,02,6.40
2010,08,23,00,03,4.80
2010,08,23,00,04,9.60
2010,08,23,00,05,8.10
2010,08,23,00,06,6.40
2010,08,23,00,07,9.60
2010,08,23,00,08,8.10
2010,08,23,00,09,8.10
2010,08,23,00,10,8.10
2010,08,23,00,11,8.10
2010,08,23,00,12,11.30
2010,08,23,00,13,8.10
2010,08,23,00,14,8.10
2010,08,23,00,15,11.30
2010,08,23,00,16,11.30
2010,08,23,00,17,6.40
2010,08,23,00,18,9.60
2010,08,23,00,19,8.10
2010,08,23,00,20,14.50
2010,08,23,00,21,8.10
2010,08,23,00,22,8.10
2010,08,23,00,23,4.80
2010,08,23,00,24,4.80
2010,08,23,00,25,4.80
2010,08,23,00,26,4.80
2010,08,23,00,27,4.80
2010,08,23,00,28,6.40
2010,08,23,00,29,4.80
2010,08,23,00,30,8.10
2010,08,23,00,31,9.60
2010,08,23,00,32,14.50
2010,08,23,00,33,9.60
2010,08,23,00,34,8.10
2010,08,23,00,35,6.40
2010,08,23,00,36,16.10
2010,08,23,00,37,11.30
2010,08,23,00,38,11.30
2010,08,23,00,39,6.40
2010,08,23,00,40,6.40
2010,08,23,00,41,3.20
2010,08,23,00,42,8.10
2010,08,23,00,43,6.40
2010,08,23,00,44,9.60
2010,08,23,00,45,6.40
2010,08,23,00,46,8.10
2010,08,23,00,47,3.20
2010,08,23,00,48,1.60
2010,08,23,00,49,8.10
2010,08,23,00,50,6.40
2010,08,23,00,51,9.60
2010,08,23,00,52,8.10
2010,08,23,00,53,8.10
2010,08,23,00,54,8.10
2010,08,23,00,55,6.40
2010,08,23,00,56,9.60
2010,08,23,00,57,9.60
2010,08,23,00,58,6.40
2010,08,23,00,59,6.40
2010,08,23,01,00,8.10
2010,08,23,01,01,9.60
2010,08,23,01,02,12.90
2010,08,23,01,03,8.10
2010,08,23,01,04,3.20
2010,08,23,01,05,6.40
2010,08,23,01,06,4.80
2010,08,23,01,07,9.60
2010,08,23,01,08,4.80
2010,08,23,01,09,4.80
2010,08,23,01,10,3.20
2010,08,23,01,11,4.80
2010,08,23,01,12,4.80
2010,08,23,01,13,6.40
2010,08,23,01,14,8.10
2010,08,23,01,15,9.60
2010,08,23,01,16,9.60
2010,08,23,01,17,11.30
2010,08,23,01,18,9.60
2010,08,23,01,19,4.80
2010,08,23,01,20,6.40
2010,08,23,01,21,6.40
2010,08,23,01,22,8.10
2010,08,23,01,23,8.10
2010,08,23,01,24,6.40
2010,08,23,01,25,11.30
2010,08,23,01,26,4.80
2010,08,23,01,27,6.40
2010,08,23,01,28,6.40
2010,08,23,01,29,6.40
2010,08,23,01,30,6.40
2010,08,23,01,31,6.40
2010,08,23,01,32,6.40
2010,08,23,01,33,4.80
2010,08,23,01,34,6.40
2010,08,23,01,35,6.40
2010,08,23,01,36,8.10
2010,08,23,01,37,8.10
2010,08,23,01,38,6.40
2010,08,23,01,39,9.60
2010,08,23,01,40,6.40
2010,08,23,01,41,6.40
2010,08,23,01,42,6.40
2010,08,23,01,43,8.10
2010,08,23,01,44,9.60
2010,08,23,01,45,6.40
2010,08,23,01,46,9.60
2010,08,23,01,47,4.80
2010,08,23,01,48,6.40
2010,08,23,01,49,6.40
2010,08,23,01,50,4.80
2010,08,23,01,51,6.40
2010,08,23,01,52,9.60
2010,08,23,01,53,6.40
2010,08,23,01,54,8.10
2010,08,23,01,55,3.20
2010,08,23,01,56,6.40
2010,08,23,01,57,3.20
2010,08,23,01,58,6.40
2010,08,23,01,59,6.40
2010,08,23,02,00,4.80
2010,08,23,02,01,6.40
2010,08,23,02,02,4.80
2010,08,23,02,03,6.40
2010,08,23,02,04,8.10
2010,08,23,02,05,8.10
2010,08,23,02,06,4.80
2010,08,23,02,07,6.40
2010,08,23,02,08,6.40
2010,08,23,02,09,6.40
2010,08,23,02,10,8.10
2010,08,23,02,11,6.40
2010,08,23,02,12,9.60
2010,08,23,02,13,6.40
2010,08,23,02,14,8.10
2010,08,23,02,15,8.10
2010,08,23,02,16,6.40
2010,08,23,02,17,8.10
2010,08,23,02,18,6.40
2010,08,23,02,19,4.80
2010,08,23,02,20,4.80
2010,08,23,02,21,4.80
2010,08,23,02,22,9.60
2010,08,23,02,23,3.20
2010,08,23,02,24,4.80
2010,08,23,02,25,6.40
2010,08,23,02,26,3.20
2010,08,23,02,27,4.80
2010,08,23,02,28,4.80
2010,08,23,02,29,3.20
2010,08,23,02,30,6.40
2010,08,23,02,31,3.20
2010,08,23,02,32,4.80
2010,08,23,02,33,4.80
2010,08,23,02,34,6.40
2010,08,23,02,35,4.80
2010,08,23,02,36,4.80
2010,08,23,02,37,4.80
2010,08,23,02,38,6.40
2010,08,23,02,39,6.40
2010,08,23,02,40,4.80
2010,08,23,02,41,4.80
2010,08,23,02,42,6.40
2010,08,23,02,43,3.20
2010,08,23,02,44,4.80
2010,08,23,02,45,6.40
2010,08,23,02,46,4.80
2010,08,23,02,47,8.10
2010,08,23,02,48,4.80
2010,08,23,02,49,6.40
2010,08,23,02,50,6.40
2010,08,23,02,51,6.40
2010,08,23,02,52,9.60
2010,08,23,02,53,8.10
2010,08,23,02,54,8.10
2010,08,23,02,55,6.40
2010,08,23,02,56,8.10
2010,08,23,02,57,6.40
2010,08,23,02,58,4.80
2010,08,23,02,59,6.40
2010,08,23,03,00,9.60
2010,08,23,03,01,6.40
2010,08,23,03,02,6.40
2010,08,23,03,03,6.40
2010,08,23,03,04,8.10
2010,08,23,03,05,3.20
2010,08,23,03,06,4.80
2010,08,23,03,07,4.80
2010,08,23,03,08,8.10
2010,08,23,03,09,9.60
2010,08,23,03,10,8.10
2010,08,23,03,11,4.80
2010,08,23,03,12,8.10
2010,08,23,03,13,6.40
2010,08,23,03,14,6.40
2010,08,23,03,15,6.40
2010,08,23,03,16,8.10
2010,08,23,03,17,6.40
2010,08,23,03,18,4.80
2010,08,23,03,19,4.80
2010,08,23,03,20,6.40
2010,08,23,03,21,4.80
2010,08,23,03,22,6.40
2010,08,23,03,23,6.40
2010,08,23,03,24,4.80
2010,08,23,03,25,3.20
2010,08,23,03,26,8.10
2010,08,23,03,27,6.40
2010,08,23,03,28,6.40
2010,08,23,03,29,4.80
2010,08,23,03,30,4.80
2010,08,23,03,31,3.20
2010,08,23,03,32,6.40
2010,08,23,03,33,4.80
2010,08,23,03,34,3.20
2010,08,23,03,35,3.20
2010,08,23,03,36,4.80
2010,08,23,03,37,3.20
2010,08,23,03,40,3.20
2010,08,23,03,41,3.20
2010,08,23,03,42,4.80
2010,08,23,03,43,4.80
2010,08,23,03,44,3.20
2010,08,23,03,45,3.20
2010,08,23,03,46,3.20
2010,08,23,03,47,3.20
2010,08,23,03,48,1.60
2010,08,23,03,51,1.60
2010,08,23,03,54,3.20
2010,08,23,03,57,1.60
2010,08,23,03,59,3.20
2010,08,23,04,03,1.60
2010,08,23,04,04,1.60
2010,08,23,04,28,1.60
2010,08,23,04,52,1.60
2010,08,23,05,02,1.60
2010,08,23,05,09,1.60
2010,08,23,05,10,1.60
2010,08,23,05,20,3.20
2010,08,23,05,21,3.20
2010,08,23,05,22,3.20
2010,08,23,05,23,1.60
2010,08,23,05,28,1.60
2010,08,23,05,33,1.60
2010,08,23,05,34,3.20
2010,08,23,05,35,3.20
2010,08,23,05,36,4.80
2010,08,23,05,37,4.80
2010,08,23,05,38,4.80
2010,08,23,05,39,3.20
2010,08,23,05,40,3.20
2010,08,23,05,41,3.20
2010,08,23,05,42,4.80
2010,08,23,05,43,4.80
2010,08,23,05,44,3.20
2010,08,23,05,45,4.80
2010,08,23,05,46,3.20
2010,08,23,05,47,4.80
2010,08,23,05,48,4.80
2010,08,23,05,49,4.80
2010,08,23,05,50,4.80
2010,08,23,05,51,4.80
2010,08,23,05,52,4.80
2010,08,23,05,53,4.80
2010,08,23,05,54,4.80
2010,08,23,05,55,4.80
2010,08,23,05,56,3.20
2010,08,23,05,57,4.80
2010,08,23,05,58,4.80
2010,08,23,05,59,4.80
2010,08,23,06,00,6.40
2010,08,23,06,01,4.80
2010,08,23,06,02,4.80
2010,08,23,06,03,3.20
2010,08,23,06,04,3.20
2010,08,23,06,05,1.60
2010,08,23,06,06,1.60
2010,08,23,06,07,3.20
2010,08,23,06,08,1.60
2010,08,23,06,09,3.20
2010,08,23,06,10,3.20
2010,08,23,06,11,3.20
2010,08,23,06,12,3.20
2010,08,23,06,13,3.20
2010,08,23,06,14,3.20
2010,08,23,06,15,3.20
2010,08,23,06,16,1.60
2010,08,23,06,17,3.20
2010,08,23,06,18,1.60
2010,08,23,06,20,1.60
2010,08,23,06,21,1.60
2010,08,23,06,22,3.20
2010,08,23,06,23,3.20
2010,08,23,06,24,3.20
2010,08,23,06,25,3.20
2010,08,23,06,26,3.20
2010,08,23,06,27,3.20
2010,08,23,06,28,3.20
2010,08,23,06,29,1.60
2010,08,23,06,30,3.20
2010,08,23,06,31,3.20
2010,08,23,06,32,3.20
2010,08,23,06,33,1.60
2010,08,23,06,36,1.60
2010,08,23,06,49,3.20
2010,08,23,06,51,1.60
2010,08,23,07,16,1.60
2010,08,23,07,17,1.60
2010,08,23,07,19,1.60
2010,08,23,07,20,1.60
2010,08,23,07,22,1.60
2010,08,23,07,38,1.60
2010,08,23,07,39,3.20
2010,08,23,07,40,1.60
2010,08,23,07,46,1.60
2010,08,23,07,49,1.60
2010,08,23,07,52,1.60
2010,08,23,07,54,1.60
2010,08,23,07,55,1.60
2010,08,23,07,56,3.20
2010,08,23,07,57,3.20
2010,08,23,07,58,3.20
2010,08,23,08,05,1.60
2010,08,23,08,06,3.20
2010,08,23,08,07,3.20
2010,08,23,08,08,3.20
2010,08,23,08,09,3.20
2010,08,23,08,10,4.80
2010,08,23,08,11,4.80
2010,08,23,08,12,4.80
2010,08,23,08,13,4.80
2010,08,23,08,14,4.80
2010,08,23,08,15,4.80
2010,08,23,08,16,4.80
2010,08,23,08,17,3.20
2010,08,23,08,18,3.20
2010,08,23,08,21,1.60
2010,08,23,08,22,6.40
2010,08,23,08,23,3.20
2010,08,23,08,24,6.40
2010,08,23,08,25,4.80
2010,08,23,08,26,4.80
2010,08,23,08,27,4.80
2010,08,23,08,28,4.80
2010,08,23,08,29,3.20
2010,08,23,08,30,4.80
2010,08,23,08,31,8.10
2010,08,23,08,32,6.40
2010,08,23,08,33,4.80
2010,08,23,08,34,6.40
2010,08,23,08,35,4.80
2010,08,23,08,36,1.60
2010,08,23,08,37,3.20
2010,08,23,08,38,1.60
2010,08,23,08,39,4.80
2010,08,23,08,40,6.40
2010,08,23,08,41,4.80
2010,08,23,08,42,3.20
2010,08,23,08,43,4.80
2010,08,23,08,44,4.80
2010,08,23,08,45,3.20
2010,08,23,08,46,3.20
2010,08,23,08,47,4.80
2010,08,23,08,48,4.80
2010,08,23,08,49,6.40
2010,08,23,08,50,3.20
2010,08,23,08,51,6.40
2010,08,23,08,52,3.20
2010,08,23,08,53,6.40
2010,08,23,08,54,6.40
2010,08,23,08,55,4.80
2010,08,23,08,56,4.80
2010,08,23,08,57,6.40
2010,08,23,08,58,4.80
2010,08,23,08,59,6.40
2010,08,23,09,00,6.40
2010,08,23,09,01,8.10
2010,08,23,09,02,6.40
2010,08,23,09,03,6.40
2010,08,23,09,04,4.80
2010,08,23,09,05,4.80
2010,08,23,09,06,6.40
2010,08,23,09,07,4.80
2010,08,23,09,08,6.40
2010,08,23,09,09,6.40
2010,08,23,09,10,6.40
2010,08,23,09,11,6.40
2010,08,23,09,12,3.20
2010,08,23,09,13,4.80
2010,08,23,09,14,3.20
2010,08,23,09,15,4.80
2010,08,23,09,16,8.10
2010,08,23,09,17,6.40
2010,08,23,09,18,4.80
2010,08,23,09,19,4.80
2010,08,23,09,20,3.20
2010,08,23,09,21,6.40
2010,08,23,09,22,8.10
2010,08,23,09,23,8.10
2010,08,23,09,24,6.40
2010,08,23,09,25,6.40
2010,08,23,09,26,6.40
2010,08,23,09,27,8.10
2010,08,23,09,28,6.40
2010,08,23,09,29,8.10
2010,08,23,09,30,9.60
2010,08,23,09,31,9.60
2010,08,23,09,32,8.10
2010,08,23,09,33,8.10
2010,08,23,09,34,11.30
2010,08,23,09,35,8.10
2010,08,23,09,36,9.60
2010,08,23,09,37,8.10
2010,08,23,09,38,9.60
2010,08,23,09,39,11.30
2010,08,23,09,40,9.60
2010,08,23,09,41,11.30
2010,08,23,09,42,9.60
2010,08,23,09,43,6.40
2010,08,23,09,44,8.10
2010,08,23,09,45,8.10
2010,08,23,09,46,6.40
2010,08,23,09,47,9.60
2010,08,23,09,48,9.60
2010,08,23,09,49,9.60
2010,08,23,09,50,9.60
2010,08,23,09,51,6.40
2010,08,23,09,52,8.10
2010,08,23,09,53,9.60
2010,08,23,09,54,9.60
2010,08,23,09,55,9.60
2010,08,23,09,56,8.10
2010,08,23,09,57,6.40
2010,08,23,09,58,9.60
2010,08,23,09,59,8.10
2010,08,23,10,00,9.60
2010,08,23,10,01,9.60
2010,08,23,10,02,9.60
2010,08,23,10,03,9.60
2010,08,23,10,04,6.40
2010,08,23,10,05,6.40
2010,08,23,10,06,6.40
2010,08,23,10,07,4.80
2010,08,23,10,08,8.10
2010,08,23,10,09,9.60
2010,08,23,10,10,6.40
2010,08,23,10,11,8.10
2010,08,23,10,12,9.60
2010,08,23,10,13,8.10
2010,08,23,10,14,11.30
2010,08,23,10,15,9.60
2010,08,23,10,16,9.60
2010,08,23,10,17,9.60
2010,08,23,10,18,16.10
2010,08,23,10,19,6.40
2010,08,23,10,20,11.30
2010,08,23,10,21,9.60
2010,08,23,10,22,9.60
2010,08,23,10,23,6.40
2010,08,23,10,24,14.50
2010,08,23,10,25,14.50
2010,08,23,10,26,8.10
2010,08,23,10,27,9.60
2010,08,23,10,28,9.60
2010,08,23,10,29,11.30
2010,08,23,10,30,9.60
2010,08,23,10,31,9.60
2010,08,23,10,32,6.40
2010,08,23,10,33,9.60
2010,08,23,10,34,11.30
2010,08,23,10,35,9.60
2010,08,23,10,36,9.60
2010,08,23,10,37,9.60
2010,08,23,10,38,8.10
2010,08,23,10,39,6.40
2010,08,23,10,40,6.40
2010,08,23,10,41,11.30
2010,08,23,10,42,8.10
2010,08,23,10,43,9.60
2010,08,23,10,44,4.80
2010,08,23,10,45,9.60
2010,08,23,10,46,9.60
2010,08,23,10,47,9.60
2010,08,23,10,48,8.10
2010,08,23,10,49,4.80
2010,08,23,10,50,8.10
2010,08,23,10,51,9.60
2010,08,23,10,52,9.60
2010,08,23,10,53,11.30
2010,08,23,10,54,9.60
2010,08,23,10,55,9.60
2010,08,23,10,56,11.30
2010,08,23,10,57,12.90
2010,08,23,10,58,8.10
2010,08,23,10,59,8.10
2010,08,23,11,00,11.30
2010,08,23,11,01,9.60
2010,08,23,11,02,8.10
2010,08,23,11,03,9.60
2010,08,23,11,04,11.30
2010,08,23,11,05,9.60
2010,08,23,11,06,6.40
2010,08,23,11,07,11.30
2010,08,23,11,08,11.30
2010,08,23,11,09,8.10
2010,08,23,11,10,8.10
2010,08,23,11,11,9.60
2010,08,23,11,12,9.60
2010,08,23,11,13,9.60
2010,08,23,11,14,8.10
2010,08,23,11,15,9.60
2010,08,23,11,16,9.60
2010,08,23,11,17,9.60
2010,08,23,11,18,9.60
2010,08,23,11,19,8.10
2010,08,23,11,20,11.30
2010,08,23,11,21,9.60
2010,08,23,11,22,9.60
2010,08,23,11,23,9.60
2010,08,23,11,24,9.60
2010,08,23,11,25,9.60
2010,08,23,11,26,8.10
2010,08,23,11,27,6.40
2010,08,23,11,28,12.90
2010,08,23,11,29,16.10
2010,08,23,11,30,4.80
2010,08,23,11,31,11.30
2010,08,23,11,32,11.30
2010,08,23,11,33,14.50
2010,08,23,11,34,11.30
2010,08,23,11,35,11.30
2010,08,23,11,36,11.30
2010,08,23,11,37,8.10
2010,08,23,11,38,8.10
2010,08,23,11,39,11.30
2010,08,23,11,40,11.30
2010,08,23,11,41,8.10
2010,08,23,11,42,14.50
2010,08,23,11,43,11.30
2010,08,23,11,44,12.90
2010,08,23,11,45,8.10
2010,08,23,11,46,11.30
2010,08,23,11,47,12.90
2010,08,23,11,48,8.10
2010,08,23,11,49,11.30
2010,08,23,11,50,16.10
2010,08,23,11,51,9.60
2010,08,23,11,52,9.60
2010,08,23,11,53,14.50
2010,08,23,11,54,16.10
2010,08,23,11,55,16.10
2010,08,23,11,56,11.30
2010,08,23,11,57,6.40
2010,08,23,11,58,8.10
2010,08,23,11,59,6.40
2010,08,23,12,00,9.60
2010,08,23,12,01,8.10
2010,08,23,12,02,16.10
2010,08,23,12,03,8.10
2010,08,23,12,04,9.60
2010,08,23,12,05,11.30
2010,08,23,12,06,11.30
2010,08,23,12,07,8.10
2010,08,23,12,08,8.10
2010,08,23,12,09,9.60
2010,08,23,12,10,8.10
2010,08,23,12,11,11.30
2010,08,23,12,12,9.60
2010,08,23,12,13,9.60
2010,08,23,12,14,9.60
2010,08,23,12,15,8.10
2010,08,23,12,16,9.60
2010,08,23,12,17,9.60
2010,08,23,12,18,11.30
2010,08,23,12,19,8.10
2010,08,23,12,20,14.50
2010,08,23,12,21,9.60
2010,08,23,12,22,14.50
2010,08,23,12,23,9.60
2010,08,23,12,24,11.30
2010,08,23,12,25,9.60
2010,08,23,12,26,8.10
2010,08,23,12,27,12.90
2010,08,23,12,28,9.60
2010,08,23,12,29,14.50
2010,08,23,12,30,11.30
2010,08,23,12,31,11.30
2010,08,23,12,32,8.10
2010,08,23,12,33,11.30
2010,08,23,12,34,9.60
2010,08,23,12,35,8.10
2010,08,23,12,36,11.30
2010,08,23,12,37,11.30
2010,08,23,12,38,11.30
2010,08,23,12,39,8.10
2010,08,23,12,40,11.30
2010,08,23,12,41,11.30
2010,08,23,12,42,11.30
2010,08,23,12,43,11.30
2010,08,23,12,44,9.60
2010,08,23,12,45,3.20
2010,08,23,12,46,8.10
2010,08,23,12,47,9.60
2010,08,23,12,48,8.10
2010,08,23,12,49,14.50
2010,08,23,12,50,11.30
2010,08,23,12,51,11.30
2010,08,23,12,52,9.60
2010,08,23,12,53,11.30
2010,08,23,12,54,8.10
2010,08,23,12,55,16.10
2010,08,23,12,56,16.10
2010,08,23,12,57,14.50
2010,08,23,12,58,9.60
2010,08,23,12,59,6.40
2010,08,23,13,00,14.50
2010,08,23,13,01,14.50
2010,08,23,13,02,14.50
2010,08,23,13,03,12.90
2010,08,23,13,04,16.10
2010,08,23,13,05,14.50
2010,08,23,13,06,11.30
2010,08,23,13,07,11.30
2010,08,23,13,08,16.10
2010,08,23,13,09,9.60
2010,08,23,13,10,9.60
2010,08,23,13,11,16.10
2010,08,23,13,12,14.50
2010,08,23,13,13,16.10
2010,08,23,13,14,17.70
2010,08,23,13,15,14.50
2010,08,23,13,16,16.10
2010,08,23,13,17,12.90
2010,08,23,13,18,9.60
2010,08,23,13,19,9.60
2010,08,23,13,20,9.60
2010,08,23,13,21,9.60
2010,08,23,13,22,9.60
2010,08,23,13,23,11.30
2010,08,23,13,24,11.30
2010,08,23,13,25,14.50
2010,08,23,13,26,11.30
2010,08,23,13,27,8.10
2010,08,23,13,28,12.90
2010,08,23,13,29,9.60
2010,08,23,13,30,9.60
2010,08,23,13,31,12.90
2010,08,23,13,32,8.10
2010,08,23,13,33,12.90
2010,08,23,13,34,11.30
2010,08,23,13,35,6.40
2010,08,23,13,36,9.60
2010,08,23,13,37,11.30
2010,08,23,13,38,11.30
2010,08,23,13,39,16.10
2010,08,23,13,40,11.30
2010,08,23,13,41,11.30
2010,08,23,13,42,9.60
2010,08,23,13,43,11.30
2010,08,23,13,44,14.50
2010,08,23,13,45,14.50
2010,08,23,13,46,9.60
2010,08,23,13,47,6.40
2010,08,23,13,48,11.30
2010,08,23,13,49,11.30
2010,08,23,13,50,11.30
2010,08,23,13,51,12.90
2010,08,23,13,52,6.40
2010,08,23,13,53,8.10
2010,08,23,13,54,11.30
2010,08,23,13,55,11.30
2010,08,23,13,56,11.30
2010,08,23,13,57,11.30
2010,08,23,13,58,11.30
2010,08,23,13,59,4.80
2010,08,23,14,00,11.30
2010,08,23,14,01,14.50
2010,08,23,14,02,14.50
2010,08,23,14,03,9.60
2010,08,23,14,04,16.10
2010,08,23,14,05,14.50
2010,08,23,14,06,14.50
2010,08,23,14,07,11.30
2010,08,23,14,08,14.50
2010,08,23,14,09,9.60
2010,08,23,14,10,8.10
2010,08,23,14,11,9.60
2010,08,23,14,12,11.30
2010,08,23,14,13,16.10
2010,08,23,14,14,12.90
2010,08,23,14,15,14.50
2010,08,23,14,16,16.10
2010,08,23,14,17,9.60
2010,08,23,14,18,9.60
2010,08,23,14,19,11.30
2010,08,23,14,20,8.10
2010,08,23,14,21,8.10
2010,08,23,14,22,6.40
2010,08,23,14,23,9.60
2010,08,23,14,24,6.40
2010,08,23,14,25,9.60
2010,08,23,14,26,8.10
2010,08,23,14,27,9.60
2010,08,23,14,28,8.10
2010,08,23,14,29,11.30
2010,08,23,14,30,4.80
2010,08,23,14,31,9.60
2010,08,23,14,32,6.40
2010,08,23,14,33,8.10
2010,08,23,14,34,4.80
2010,08,23,14,35,11.30
2010,08,23,14,36,9.60
2010,08,23,14,37,6.40
2010,08,23,14,38,8.10
2010,08,23,14,39,9.60
2010,08,23,14,40,14.50
2010,08,23,14,41,14.50
2010,08,23,14,42,9.60
2010,08,23,14,43,6.40
2010,08,23,14,44,11.30
2010,08,23,14,45,11.30
2010,08,23,14,46,16.10
2010,08,23,14,47,9.60
2010,08,23,14,48,9.60
2010,08,23,14,49,11.30
2010,08,23,14,50,6.40
2010,08,23,14,51,8.10
2010,08,23,14,52,9.60
2010,08,23,14,53,11.30
2010,08,23,14,54,11.30
2010,08,23,14,55,8.10
2010,08,23,14,56,11.30
2010,08,23,14,57,14.50
2010,08,23,14,58,8.10
2010,08,23,14,59,11.30
2010,08,23,15,00,6.40
2010,08,23,15,01,6.40
2010,08,23,15,02,9.60
2010,08,23,15,03,11.30
2010,08,23,15,04,9.60
2010,08,23,15,05,11.30
2010,08,23,15,06,11.30
2010,08,23,15,07,14.50
2010,08,23,15,08,12.90
2010,08,23,15,09,9.60
2010,08,23,15,10,6.40
2010,08,23,15,11,16.10
2010,08,23,15,12,11.30
2010,08,23,15,13,12.90
2010,08,23,15,14,6.40
2010,08,23,15,15,8.10
2010,08,23,15,16,6.40
2010,08,23,15,17,6.40
2010,08,23,15,18,14.50
2010,08,23,15,19,8.10
2010,08,23,15,20,12.90
2010,08,23,15,21,6.40
2010,08,23,15,22,11.30
2010,08,23,15,23,14.50
2010,08,23,15,24,11.30
2010,08,23,15,25,9.60
2010,08,23,15,26,8.10
2010,08,23,15,27,14.50
2010,08,23,15,28,14.50
2010,08,23,15,29,9.60
2010,08,23,15,30,9.60
2010,08,23,15,31,9.60
2010,08,23,15,32,9.60
2010,08,23,15,33,8.10
2010,08,23,15,34,9.60
2010,08,23,15,35,9.60
2010,08,23,15,36,9.60
2010,08,23,15,37,9.60
2010,08,23,15,38,8.10
2010,08,23,15,39,16.10
2010,08,23,15,40,14.50
2010,08,23,15,41,11.30
2010,08,23,15,42,11.30
2010,08,23,15,43,14.50
2010,08,23,15,44,16.10
2010,08,23,15,45,11.30
2010,08,23,15,46,11.30
2010,08,23,15,47,14.50
2010,08,23,15,48,16.10
2010,08,23,15,49,14.50
2010,08,23,15,50,16.10
2010,08,23,15,51,17.70
2010,08,23,15,52,17.70
2010,08,23,15,53,9.60
2010,08,23,15,54,9.60
2010,08,23,15,55,11.30
2010,08,23,15,56,11.30
2010,08,23,15,57,8.10
2010,08,23,15,58,16.10
2010,08,23,15,59,11.30
2010,08,23,16,00,11.30
2010,08,23,16,01,9.60
2010,08,23,16,02,8.10
2010,08,23,16,03,11.30
2010,08,23,16,04,8.10
2010,08,23,16,05,8.10
2010,08,23,16,06,11.30
2010,08,23,16,07,11.30
2010,08,23,16,08,16.10
2010,08,23,16,09,14.50
2010,08,23,16,10,8.10
2010,08,23,16,11,6.40
2010,08,23,16,12,6.40
2010,08,23,16,13,11.30
2010,08,23,16,14,8.10
2010,08,23,16,15,11.30
2010,08,23,16,16,12.90
2010,08,23,16,17,14.50
2010,08,23,16,18,6.40
2010,08,23,16,19,11.30
2010,08,23,16,20,9.60
2010,08,23,16,21,6.40
2010,08,23,16,22,9.60
2010,08,23,16,23,9.60
2010,08,23,16,24,6.40
2010,08,23,16,25,4.80
2010,08,23,16,26,8.10
2010,08,23,16,27,8.10
2010,08,23,16,28,9.60
2010,08,23,16,29,11.30
2010,08,23,16,30,9.60
2010,08,23,16,31,8.10
2010,08,23,16,32,9.60
2010,08,23,16,33,9.60
2010,08,23,16,34,11.30
2010,08,23,16,35,9.60
2010,08,23,16,36,4.80
2010,08,23,16,37,9.60
2010,08,23,16,38,6.40
2010,08,23,16,39,4.80
2010,08,23,16,40,6.40
2010,08,23,16,41,9.60
2010,08,23,16,42,9.60
2010,08,23,16,43,9.60
2010,08,23,16,44,11.30
2010,08,23,16,45,11.30
2010,08,23,16,46,11.30
2010,08,23,16,47,11.30
2010,08,23,16,48,9.60
2010,08,23,16,49,6.40
2010,08,23,16,50,9.60
2010,08,23,16,51,8.10
2010,08,23,16,52,4.80
2010,08,23,16,53,9.60
2010,08,23,16,54,9.60
2010,08,23,16,55,11.30
2010,08,23,16,56,11.30
2010,08,23,16,57,11.30
2010,08,23,16,58,9.60
2010,08,23,16,59,6.40
2010,08,23,17,00,8.10
2010,08,23,17,01,8.10
2010,08,23,17,02,8.10
2010,08,23,17,03,6.40
2010,08,23,17,04,8.10
2010,08,23,17,05,9.60
2010,08,23,17,06,9.60
2010,08,23,17,07,11.30
2010,08,23,17,08,11.30
2010,08,23,17,09,11.30
2010,08,23,17,10,11.30
2010,08,23,17,11,8.10
2010,08,23,17,12,8.10
2010,08,23,17,13,11.30
2010,08,23,17,14,14.50
2010,08,23,17,15,9.60
2010,08,23,17,16,6.40
2010,08,23,17,17,9.60
2010,08,23,17,18,4.80
2010,08,23,17,19,6.40
2010,08,23,17,20,4.80
2010,08,23,17,21,3.20
2010,08,23,17,22,8.10
2010,08,23,17,23,3.20
2010,08,23,17,24,11.30
2010,08,23,17,25,9.60
2010,08,23,17,26,8.10
2010,08,23,17,27,6.40
2010,08,23,17,28,8.10
2010,08,23,17,29,6.40
2010,08,23,17,30,11.30
2010,08,23,17,31,9.60
2010,08,23,17,32,9.60
2010,08,23,17,33,9.60
2010,08,23,17,34,9.60
2010,08,23,17,35,8.10
2010,08,23,17,36,8.10
2010,08,23,17,37,6.40
2010,08,23,17,38,11.30
2010,08,23,17,39,11.30
2010,08,23,17,40,12.90
2010,08,23,17,41,6.40
2010,08,23,17,42,6.40
2010,08,23,17,43,6.40
2010,08,23,17,44,6.40
2010,08,23,17,45,8.10
2010,08,23,17,46,8.10
2010,08,23,17,47,9.60
2010,08,23,17,48,11.30
2010,08,23,17,49,8.10
2010,08,23,17,50,6.40
2010,08,23,17,51,8.10
2010,08,23,17,52,9.60
2010,08,23,17,53,8.10
2010,08,23,17,54,8.10
2010,08,23,17,55,8.10
2010,08,23,17,56,9.60
2010,08,23,17,57,14.50
2010,08,23,17,58,16.10
2010,08,23,17,59,11.30
2010,08,23,18,00,9.60
2010,08,23,18,01,9.60
2010,08,23,18,02,8.10
2010,08,23,18,03,11.30
2010,08,23,18,04,6.40
2010,08,23,18,05,14.50
2010,08,23,18,06,14.50
2010,08,23,18,07,11.30
2010,08,23,18,08,11.30
2010,08,23,18,09,11.30
2010,08,23,18,10,4.80
2010,08,23,18,11,6.40
2010,08,23,18,12,11.30
2010,08,23,18,13,9.60
2010,08,23,18,14,12.90
2010,08,23,18,15,11.30
2010,08,23,18,16,11.30
2010,08,23,18,17,6.40
2010,08,23,18,18,8.10
2010,08,23,18,19,3.20
2010,08,23,18,20,3.20
2010,08,23,18,21,3.20
2010,08,23,18,22,4.80
2010,08,23,18,23,6.40
2010,08,23,18,24,6.40
2010,08,23,18,25,6.40
2010,08,23,18,26,4.80
2010,08,23,18,27,8.10
2010,08,23,18,28,6.40
2010,08,23,18,29,8.10
2010,08,23,18,30,8.10
2010,08,23,18,31,6.40
2010,08,23,18,32,6.40
2010,08,23,18,33,3.20
2010,08,23,18,34,8.10
2010,08,23,18,35,8.10
2010,08,23,18,36,8.10
2010,08,23,18,37,4.80
2010,08,23,18,38,6.40
2010,08,23,18,39,8.10
2010,08,23,18,40,4.80
2010,08,23,18,41,6.40
2010,08,23,18,42,8.10
2010,08,23,18,43,8.10
2010,08,23,18,44,6.40
2010,08,23,18,45,4.80
2010,08,23,18,46,1.60
2010,08,23,18,47,4.80
2010,08,23,18,48,6.40
2010,08,23,18,49,4.80
2010,08,23,18,50,1.60
2010,08,23,18,51,1.60
2010,08,23,18,52,1.60
2010,08,23,18,53,3.20
2010,08,23,18,54,1.60
2010,08,23,18,55,6.40
2010,08,23,18,56,4.80
2010,08,23,18,57,3.20
2010,08,23,18,58,4.80
2010,08,23,18,59,9.60
2010,08,23,19,00,11.30
2010,08,23,19,01,9.60
2010,08,23,19,02,8.10
2010,08,23,19,03,6.40
2010,08,23,19,04,9.60
2010,08,23,19,05,6.40
2010,08,23,19,06,11.30
2010,08,23,19,07,4.80
2010,08,23,19,08,8.10
2010,08,23,19,09,4.80
2010,08,23,19,10,8.10
2010,08,23,19,11,4.80
2010,08,23,19,12,3.20
2010,08,23,19,13,3.20
2010,08,23,19,14,6.40
2010,08,23,19,15,4.80
2010,08,23,19,16,3.20
2010,08,23,19,17,6.40
2010,08,23,19,18,3.20
2010,08,23,19,19,3.20
2010,08,23,19,20,6.40
2010,08,23,19,21,4.80
2010,08,23,19,22,8.10
2010,08,23,19,23,3.20
2010,08,23,19,24,4.80
2010,08,23,19,25,4.80
2010,08,23,19,26,4.80
2010,08,23,19,27,3.20
2010,08,23,19,28,4.80
2010,08,23,19,29,4.80
2010,08,23,19,30,8.10
2010,08,23,19,31,8.10
2010,08,23,19,32,8.10
2010,08,23,19,33,8.10
2010,08,23,19,34,4.80
2010,08,23,19,35,6.40
2010,08,23,19,36,4.80
2010,08,23,19,37,6.40
2010,08,23,19,38,6.40
2010,08,23,19,39,8.10
2010,08,23,19,40,6.40
2010,08,23,19,41,8.10
2010,08,23,19,42,6.40
2010,08,23,19,43,6.40
2010,08,23,19,44,4.80
2010,08,23,19,45,6.40
2010,08,23,19,46,4.80
2010,08,23,19,47,6.40
2010,08,23,19,48,6.40
2010,08,23,19,49,8.10
2010,08,23,19,50,8.10
2010,08,23,19,51,6.40
2010,08,23,19,52,8.10
2010,08,23,19,53,6.40
2010,08,23,19,54,6.40
2010,08,23,19,55,6.40
2010,08,23,19,56,6.40
2010,08,23,19,57,8.10
2010,08,23,19,58,6.40
2010,08,23,19,59,4.80
2010,08,23,20,00,4.80
2010,08,23,20,01,6.40
2010,08,23,20,02,6.40
2010,08,23,20,03,6.40
2010,08,23,20,04,3.20
2010,08,23,20,05,4.80
2010,08,23,20,06,6.40
2010,08,23,20,07,6.40
2010,08,23,20,08,6.40
2010,08,23,20,09,8.10
2010,08,23,20,10,8.10
2010,08,23,20,11,6.40
2010,08,23,20,12,6.40
2010,08,23,20,13,6.40
2010,08,23,20,14,8.10
2010,08,23,20,15,8.10
2010,08,23,20,16,8.10
2010,08,23,20,17,8.10
2010,08,23,20,18,4.80
2010,08,23,20,19,4.80
2010,08,23,20,20,8.10
2010,08,23,20,21,8.10
2010,08,23,20,22,8.10
2010,08,23,20,23,6.40
2010,08,23,20,24,3.20
2010,08,23,20,25,4.80
2010,08,23,20,26,4.80
2010,08,23,20,27,4.80
2010,08,23,20,28,4.80
2010,08,23,20,29,3.20
2010,08,23,20,30,3.20
2010,08,23,20,31,1.60
2010,08,23,20,32,3.20
2010,08,23,20,33,1.60
2010,08,23,20,34,4.80
2010,08,23,20,35,4.80
2010,08,23,20,36,1.60
2010,08,23,20,37,4.80
2010,08,23,20,38,3.20
2010,08,23,20,39,4.80
2010,08,23,20,40,3.20
2010,08,23,20,41,4.80